Other Surface Observations
Issued by NWS Charleston, SC

Home | Current Version | Previous Version | Text Only | Print | Product List | Glossary On
Versions: 1 2 3 4 5 6 7 8 9 10 11 12 13 14 15 16 17 18 19 20 21 22 23 24 25 26 27 28 29 30 31 32 33 34 35 36 37 38 39 40 41 42 43 44 45 46 47 48 49 50
071
SXUS52 KCHS 260927
OSOCHS

MARINE OBSERVATIONS
NATIONAL WEATHER SERVICE CHARLESTON SC
400 AM EST SUN FEB 26 2017

...DOWNTOWN CHARLESTON AND HARBOR...

CITY           SKY/WX    TMP DP  RH WIND       PRES   REMARKS
WATERFRONT PRK   N/A     55  26  32 NW6       30.01R

...LAKE MOULTRIE...

CITY           SKY/WX    TMP DP  RH WIND       PRES   REMARKS
PINOPOLIS        N/A     55  34  44 NW14      29.92R

...LAKE AND SUPPLEMENTAL COASTAL OBSERVATIONS...

STATION/POSITION TIME  TEMP    WIND        PRES    WAVE   SWELL
                       AIR SEA DIR/SP/G            HT/PER HT/PER/DIR
                 (UTC) (F)     (DEG/KT/KT) (MB)    (FT/S) (FT/S/D)
FORT PULASKI     0900   52 62  330/  9/ 11 1018.2
SAPELO ISLAND    0900   51     330/  7     1018.0
WINYAH BAY       0845   52     300/  4     1015.0R
LAKE MURRAY      0920   44     310/  2/  5 1017.3
ACE BASIN NERRS  0845   48        CALM     1017.0R


...C-MAN AND BUOY OBSERVATIONS...

STATION/POSITION TIME  TEMP    WIND        PRES    WAVE   SWELL
                       AIR SEA DIR/SP/G            HT/PER HT/PER/DIR
                 (UTC) (F)     (DEG/KT/KT) (MB)    (FT/S) (FT/S/D)
BUOY 41004       0850   60 69  320/ 19/ 25 1015.1R   6/ 6   2/110/ 9
BUOY 41008       0850   58 62  320/ 17/ 19 1017.4R   4/10   2/ 90/10
FOLLY BEACH CMAN 0900   52     300/  6/  9 1017.2R
CAPERS NS BUOY   0808   57 60  320/ 16/ 19 1015.6R
FRIPP NS BUOY    0908   55 62  320/ 14/ 19 1017.2R
5E ST. MARYS GA  0900      64                N/A     3/ 9   2/ 80/11


STATION/POSITION TIME  TEMP    WIND        PRES    WAVE   SWELL
                       AIR SEA DIR/SP/G            HT/PER HT/PER/DIR
                 (UTC) (F)     (DEG/KT/KT) (MB)    (FT/S) (FT/S/D)
FRYING PAN BUOY  0910   61 69  330/ 21/ 25 1014.5
BUOY 41025       0850   60 73  340/ 19/ 23 1012.0R   7/10   5/150/10
CAPE LOOKOUT NC  0900   56     340/ 17/ 19 1013.4R
BUOY 41002       0850   72 71  240/ 16/ 19 1012.4R   6/10   5/ 90/10
BUOY 41010       NOT AVBL
ST AUGUSTINE FL  0900   59 65  330/ 13/ 15 1018.6R

$$




USA.gov is the U.S. government's official web portal to all federal, state and local government web resources and services.